Charles W. Baker (2M8)
Millington, TN
Field Elevation: 247
Lat: 35°16.74N  Long: 89°55.89W
CTAF/Unicom Freq: 122.8000
   
     For Weather-by-Phone, call 901-873-0903
Weather Advisories
9/2/2014 13:50 Z
Altimeter 30.04" Hg
Wind 220° @ 8 KT
Gusts --
Visibility 10 SM
Ceiling SCT012
Temperature 26° C (79° F)
Dewpoint 26° C (79° F)
Relative Humidity 100%
Density Altitude 1,400 feet
Condensation Altitude --
  Wind and Runways
Indicated Runway = 18
History
 
 
More Info
All DigiWx sites map
NOAA Forecast
 
Airport IQ 5010
(M01) General Dewitt Spain Airport
(3M3) Collegedale Muni
 
about DigiWx
 
FAA Disclaimer: The data displayed is for advisory purposes only and is not to be used for flight planning or operations. For official data, please call 901-873-0903 to hear the current automated AWOS voice message.
  METAR 2M8 021350Z AUTO 22008KT 10SM SCT012 26/26 A3004